STARLINK-4026

operational
NORAD ID: 52600 Int'l Des: 2022-052 Owner: SPXS Country: US Constellation: starlink
LEOCIRCULAR

Über STARLINK-4026

Beschreibung wird geladen...

Live-Position

3D-Globus wird geladen...

Nächste Überflüge

Höhenverlauf

Altitude vs Time

uPlot chart will show altitude changes over time

Zweizeiliger Elementsatz

1 52600U 22052C 25251.63177234 .00001459 00000-0 10972-3 0 9993
2 52600 53.2190 16.4099 0001120 93.7986 266.3134 15.08838943184175
Epoch: 8. Sept. 2025 • Age: 10 hours

Aktueller Status

Höhe 545.2 km
Geschwindigkeit 7.60 km/s
Subsatellitenpunkt 51.75°N, 118.38°E
Startdatum 14. Mai 2022
Alter 3.3 years
Typ internet

Technische Details

Klassifizierung Payload
Masse 297.00 kg
Trockenmasse 275.00 kg
Gesamtmasse 297.00 kg
Länge 0.20 m
Durchmesser 2.80 m
Spannweite 9.00 m
Form Box + pan
Hersteller SPXS
Bus-Typ Starlink
Phasenstatus In Orbit
Besitzer/Staat SPXS/US

Große Konstellationen

Loading constellations...